{"data":{"norad_id":55644,"epoch":"2026-09-20T22:06:07.955424Z","epoch_age_seconds":66696,"freshness":"FRESH","line1":"1 55644U 23021S   26263.92092541  .00000195  00000+0  24122-4 0  9992","line2":"2 55644  70.0001  52.2708 0003018 268.5210  91.5603 14.98331839198038","mean_motion":14.98331839,"eccentricity":0.0003018,"inclination_deg":70.0001,"raan_deg":52.2708,"arg_perigee_deg":268.521,"mean_anomaly_deg":91.5603,"bstar":2.4122e-5,"rev_number":19803,"period_min":96.10688116733,"perigee_km":569.95263749627,"apogee_km":574.1477704926,"semimajor_km":6950.1872039944,"source":"CELESTRAK","updated_at":"2026-09-21T09:00:33.283674Z"}}